TimeEST,TemperatureF,Dew PointF,Humidity,Sea Level PressureIn,VisibilityMPH,Wind Direction,Wind SpeedMPH,Gust SpeedMPH,PrecipitationIn,Events,Conditions,WindDirDegrees,DateUTC
12:15 AM,28.2,6.6,40,29.94,10.0,WNW,9.2,-,N/A,,Clear,300,2013-01-22 05:15:00
12:35 AM,28.2,6.3,39,29.95,10.0,West,5.8,16.1,N/A,,Mostly Cloudy,280,2013-01-22 05:35:00
12:55 AM,27.7,4.6,38,29.96,10.0,West,12.7,18.4,N/A,,Mostly Cloudy,270,2013-01-22 05:55:00
1:15 AM,26.4,3.4,37,29.97,10.0,WNW,12.7,16.1,N/A,,Mostly Cloudy,300,2013-01-22 06:15:00
1:35 AM,26.2,0.1,32,29.98,10.0,West,10.4,23.0,N/A,,Scattered Clouds,280,2013-01-22 06:35:00
1:55 AM,25.7,0.1,33,29.99,10.0,West,8.1,21.9,N/A,,Clear,270,2013-01-22 06:55:00
2:15 AM,24.3,3.4,41,30.00,10.0,NW,13.8,-,N/A,,Scattered Clouds,310,2013-01-22 07:15:00
2:55 AM,23.2,0.5,37,30.01,10.0,WNW,6.9,-,N/A,,Scattered Clouds,300,2013-01-22 07:55:00
3:15 AM,22.8,-1.1,35,30.02,10.0,WNW,8.1,19.6,N/A,,Clear,300,2013-01-22 08:15:00
3:35 AM,22.1,-0.4,38,30.03,10.0,WNW,6.9,17.3,N/A,,Clear,290,2013-01-22 08:35:00
3:55 AM,21.6,-0.8,38,30.03,10.0,WNW,5.8,17.3,N/A,,Clear,300,2013-01-22 08:55:00
4:15 AM,21.0,0.3,41,30.04,10.0,Calm,Calm,-,N/A,,Clear,0,2013-01-22 09:15:00
4:35 AM,19.2,2.1,47,30.05,10.0,Calm,Calm,-,N/A,,Clear,0,2013-01-22 09:35:00
4:55 AM,20.3,-4.5,33,30.05,10.0,WNW,18.4,-,N/A,,Clear,290,2013-01-22 09:55:00
5:15 AM,19.8,-3.6,36,30.06,10.0,NW,6.9,17.3,N/A,,Clear,310,2013-01-22 10:15:00
5:35 AM,18.1,-0.4,44,30.07,10.0,Calm,Calm,-,N/A,,Clear,0,2013-01-22 10:35:00
5:55 AM,17.2,-0.8,45,30.08,10.0,West,8.1,-,N/A,,Clear,280,2013-01-22 10:55:00
6:15 AM,18.5,-3.8,37,30.09,10.0,WNW,6.9,18.4,N/A,,Clear,290,2013-01-22 11:15:00
6:35 AM,18.5,-5.8,34,30.10,10.0,WNW,15.0,20.7,N/A,,Clear,290,2013-01-22 11:35:00
6:55 AM,18.3,-7.2,32,30.11,10.0,WNW,12.7,21.9,N/A,,Clear,290,2013-01-22 11:55:00
7:15 AM,17.4,-7.1,34,30.12,10.0,NW,10.4,16.1,N/A,,Clear,310,2013-01-22 12:15:00
7:35 AM,17.1,-7.6,33,30.12,10.0,WNW,5.8,-,N/A,,Clear,300,2013-01-22 12:35:00
7:55 AM,16.7,-5.6,37,30.13,10.0,Calm,Calm,-,N/A,,Clear,0,2013-01-22 12:55:00
8:15 AM,16.9,-6.0,36,30.14,10.0,Calm,Calm,-,N/A,,Clear,0,2013-01-22 13:15:00
8:35 AM,18.1,-6.7,33,30.15,10.0,Calm,Calm,-,N/A,,Clear,0,2013-01-22 13:35:00
8:55 AM,18.9,-7.2,31,30.16,10.0,NNW,6.9,-,N/A,,Clear,330,2013-01-22 13:55:00
9:15 AM,19.2,-8.0,30,30.16,10.0,NW,6.9,-,N/A,,Clear,320,2013-01-22 14:15:00
9:35 AM,19.4,-9.4,28,30.18,10.0,Calm,Calm,-,N/A,,Clear,0,2013-01-22 14:35:00
9:55 AM,20.5,-9.0,27,30.19,10.0,NW,10.4,17.3,N/A,,Clear,310,2013-01-22 14:55:00
10:15 AM,20.8,-9.4,26,30.19,10.0,NW,10.4,20.7,N/A,,Clear,310,2013-01-22 15:15:00
10:35 AM,21.4,-9.8,25,30.19,10.0,NW,16.1,24.2,N/A,,Clear,320,2013-01-22 15:35:00
10:55 AM,21.7,-9.9,24,30.19,10.0,NW,11.5,19.6,N/A,,Clear,320,2013-01-22 15:55:00
11:15 AM,22.1,-9.4,25,30.19,10.0,NW,12.7,21.9,N/A,,Clear,310,2013-01-22 16:15:00
11:35 AM,22.6,-9.8,24,30.18,10.0,NW,10.4,17.3,N/A,,Clear,320,2013-01-22 16:35:00
11:55 AM,23.0,-9.6,24,30.16,10.0,NW,8.1,18.4,N/A,,Clear,320,2013-01-22 16:55:00
12:15 PM,24.1,-9.6,23,30.15,10.0,NW,9.2,18.4,N/A,,Clear,320,2013-01-22 17:15:00
12:35 PM,23.7,-10.3,22,30.14,10.0,WNW,6.9,-,N/A,,Clear,300,2013-01-22 17:35:00
12:55 PM,24.6,-10.1,22,30.14,10.0,WNW,5.8,18.4,N/A,,Clear,290,2013-01-22 17:55:00
1:15 PM,25.0,-10.1,21,30.13,10.0,WNW,8.1,-,N/A,,Clear,290,2013-01-22 18:15:00
1:35 PM,26.4,-9.2,21,30.13,10.0,West,11.5,16.1,N/A,,Clear,260,2013-01-22 18:35:00
1:55 PM,25.9,-10.3,20,30.12,10.0,WNW,9.2,16.1,N/A,,Clear,290,2013-01-22 18:55:00
2:15 PM,26.2,-9.8,20,30.12,10.0,WSW,5.8,-,N/A,,Clear,240,2013-01-22 19:15:00
2:35 PM,26.4,-10.3,20,30.12,10.0,West,6.9,-,N/A,,Clear,270,2013-01-22 19:35:00
2:55 PM,26.4,-10.3,20,30.12,10.0,WNW,9.2,-,N/A,,Clear,290,2013-01-22 19:55:00
3:15 PM,26.2,-10.7,20,30.12,10.0,West,8.1,-,N/A,,Clear,280,2013-01-22 20:15:00
3:35 PM,26.6,-9.9,20,30.13,10.0,WNW,8.1,16.1,N/A,,Clear,300,2013-01-22 20:35:00
3:55 PM,26.2,-10.1,20,30.13,10.0,WNW,9.2,18.4,N/A,,Clear,300,2013-01-22 20:55:00
4:15 PM,26.1,-9.6,21,30.14,10.0,West,6.9,-,N/A,,Clear,280,2013-01-22 21:15:00
4:35 PM,25.7,-9.0,22,30.14,10.0,West,5.8,-,N/A,,Clear,270,2013-01-22 21:35:00
4:55 PM,24.8,-8.0,24,30.15,10.0,WSW,6.9,-,N/A,,Clear,250,2013-01-22 21:55:00
5:15 PM,23.9,-7.8,25,30.16,10.0,West,6.9,-,N/A,,Clear,260,2013-01-22 22:15:00
5:35 PM,22.8,-6.7,27,30.17,10.0,WSW,9.2,-,N/A,,Clear,250,2013-01-22 22:35:00
5:55 PM,22.1,-6.9,28,30.17,10.0,Calm,Calm,-,N/A,,Clear,0,2013-01-22 22:55:00
6:15 PM,21.2,-6.0,30,30.19,10.0,Calm,Calm,-,N/A,,Clear,0,2013-01-22 23:15:00
6:35 PM,20.8,-5.8,31,30.19,10.0,Calm,Calm,-,N/A,,Clear,0,2013-01-22 23:35:00
6:55 PM,19.4,-4.7,34,30.20,10.0,Calm,Calm,-,N/A,,Clear,0,2013-01-22 23:55:00
7:15 PM,19.6,-5.1,34,30.20,10.0,Calm,Calm,-,N/A,,Clear,0,2013-01-23 00:15:00
7:35 PM,19.8,-4.7,34,30.20,10.0,Calm,Calm,-,N/A,,Clear,0,2013-01-23 00:35:00
7:55 PM,20.1,-5.1,33,30.21,10.0,West,3.5,-,N/A,,Clear,280,2013-01-23 00:55:00
8:15 PM,19.9,-5.3,33,30.22,10.0,West,4.6,-,N/A,,Clear,280,2013-01-23 01:15:00
8:35 PM,19.6,-4.9,34,30.21,10.0,Calm,Calm,-,N/A,,Clear,0,2013-01-23 01:35:00
8:55 PM,19.2,-4.5,35,30.21,10.0,West,4.6,-,N/A,,Clear,260,2013-01-23 01:55:00
9:15 PM,18.9,-4.2,36,30.21,10.0,West,3.5,-,N/A,,Clear,270,2013-01-23 02:15:00
9:35 PM,16.7,-1.8,44,30.22,10.0,Calm,Calm,-,N/A,,Clear,0,2013-01-23 02:35:00
9:55 PM,15.6,-1.3,47,30.23,10.0,Calm,Calm,-,N/A,,Clear,0,2013-01-23 02:55:00
10:15 PM,16.5,-1.3,46,30.23,10.0,Calm,Calm,-,N/A,,Clear,0,2013-01-23 03:15:00
10:35 PM,15.8,-0.0,50,30.23,10.0,Calm,Calm,-,N/A,,Clear,0,2013-01-23 03:35:00
10:55 PM,14.2,1.4,57,30.23,10.0,Calm,Calm,-,N/A,,Clear,0,2013-01-23 03:55:00
11:15 PM,13.5,1.8,60,30.23,10.0,Calm,Calm,-,N/A,,Clear,0,2013-01-23 04:15:00
11:55 PM,12.2,2.7,66,30.23,10.0,Calm,Calm,-,N/A,,Clear,0,2013-01-23 04:55:00